This is the latest recevied weather packets stored in our database for station/object HA2KAB-10. If no packets are shown the sender has not sent any weather packets the latest 10 day(s).
| Time | Temp. | Humidity | Pressure | Rain* | Wind** | Luminosity | Snow |
|---|---|---|---|---|---|---|---|
| 1777528522 | 16.11° C | 23% | 1030.8 hPa | - | - | - | - |
| 1777524982 | 13.89° C | 28% | 1030.5 hPa | - | - | - | - |
| 1777521442 | 12.78° C | 28% | 1030.1 hPa | - | - | - | - |
| 1777517902 | 12.78° C | 28% | 1029.8 hPa | - | - | - | - |
| 1777514362 | 13.33° C | 27% | 1029.7 hPa | - | - | - | - |
| 1777510821 | 13.33° C | 26% | 1029.5 hPa | - | - | - | - |
| 1777500201 | 13.89° C | 25% | 1028.5 hPa | - | - | - | - |
| 1777496661 | 14.44° C | 24% | 1027.8 hPa | - | - | - | - |
| 1777486039 | 16.67° C | 25% | 1025.5 hPa | - | - | - | - |
| 1777452739 | 16.11° C | 25% | 1026.2 hPa | - | - | - | - |
| 1777449199 | 15.56° C | 24% | 1026.1 hPa | - | - | - | - |
| 1777445659 | 15° C | 23% | 1025.7 hPa | - | - | - | - |
| 1777442118 | 15° C | 22% | 1025.3 hPa | - | - | - | - |
| 1777438578 | 15° C | 22% | 1025 hPa | - | - | - | - |
| 1777435091 | 15.56° C | 23% | 1024.5 hPa | - | - | - | - |
| 1777435038 | 15.56° C | 23% | 1024.5 hPa | - | - | - | - |
| 1777431498 | 15.56° C | 25% | 1024.1 hPa | - | - | - | - |
| 1777427958 | 16.11° C | 28% | 1024 hPa | - | - | - | - |
| 1777410257 | 17.78° C | 30% | 1024 hPa | - | - | - | - |
| 1777406717 | 17.78° C | 31% | 1023.9 hPa | - | - | - | - |
| 1777403177 | 17.78° C | 31% | 1023.7 hPa | - | - | - | - |
| 1777399637 | 18.33° C | 32% | 1023.2 hPa | - | - | - | - |
| 1777396097 | 18.33° C | 33% | 1022.9 hPa | - | - | - | - |
| 1777386363 | 19.44° C | 31% | 1023.2 hPa | - | - | - | - |
| 1777385473 | 19.44° C | 31% | 1023.2 hPa | - | - | - | - |
* Rain since midnight (hover to see other rain measurements)
** Current wind speed in m/s (hover to see current wind gust speed)